sat.trackr.live / text

‹ back to catalog

YAOGAN-43 01C

NORAD 60460 · 2024-148C

PAYLOAD ACTIVE UNKNOWN

§ Identity

Operator
Country
PRC
Launch date
2024-08-16
Launch site
XICLF
Launch vehicle
Mass (kg)
RCS (m²)

External: N2YO · Heavens-Above · Gunter

§ Orbital elements

Epoch: 2026-05-25T03:30:29.907936Z

Period
94.54 min
Inclination
34.9992°
Eccentricity
0.0006163
Mean motion
15.23166100 rev/d
Perigee alt
492.1 km
Apogee alt
500.5 km
Semi-major
6,874.4 km
B*
3.4588e-4
RAAN
307.4409°
Arg perigee
351.2857°
Mean anomaly
8.7750°
Rev number
9,862

§ Raw data

YAOGAN-43 01C1 60460U 24148C   26145.14617949  .00008350  00000+0  34588-3 0  99902 60460  34.9992 307.4409 0006163 351.2857   8.7750 15.23166100 98625

JSON: /api/v1/satellites/60460 · /tle

For live sub-satellite position, see the globe view (requires WebGL).

§ Visibility from observer

Set your observer location to see the next 7 days of passes ≥ 10°. The values pass through the URL so the page stays shareable.

No JS? Fill the form by hand. The geolocation button needs JavaScript.